Time,TemperatureF,DewpointF,PressureIn,WindDirection,WindDirectionDegrees,WindSpeedMPH,WindSpeedGustMPH,Humidity,HourlyPrecipIn,Conditions,Clouds,dailyrainin,SoftwareType,DateUTC
2013-02-22 00:09:00,46.4,37.0,29.91,ESE,119,0.0,-999.0,70,-99.99,,,0.15,weatherlink.com 1.10,2013-02-22 06:09:00,
2013-02-22 00:24:00,45.8,37.0,29.91,West,263,0.0,-999.0,72,-99.99,,,0.15,weatherlink.com 1.10,2013-02-22 06:24:00,
2013-02-22 00:39:00,44.9,36.0,29.92,SSE,156,0.0,-999.0,72,-99.99,,,0.00,weatherlink.com 1.10,2013-02-22 06:39:00,
2013-02-22 00:54:00,44.1,36.0,29.93,SSE,156,0.0,-999.0,73,-99.99,,,0.00,weatherlink.com 1.10,2013-02-22 06:54:00,
2013-02-22 01:09:00,43.4,36.0,29.93,West,260,0.0,-999.0,74,-99.99,,,0.00,weatherlink.com 1.10,2013-02-22 07:09:00,
2013-02-22 01:24:00,42.7,35.0,29.94,SE,144,0.0,-999.0,73,-99.99,,,0.00,weatherlink.com 1.10,2013-02-22 07:24:00,
2013-02-22 01:39:00,42.2,34.0,29.94,WSW,240,0.0,-999.0,74,-99.99,,,0.00,weatherlink.com 1.10,2013-02-22 07:39:00,
2013-02-22 01:54:00,41.8,34.0,29.96,East,82,0.0,-999.0,75,-99.99,,,0.00,weatherlink.com 1.10,2013-02-22 07:54:00,
2013-02-22 02:09:00,41.4,34.0,29.96,NE,45,0.0,-999.0,76,-99.99,,,0.00,weatherlink.com 1.10,2013-02-22 08:09:00,
2013-02-22 02:24:00,41.1,34.0,29.96,NE,44,0.0,-999.0,77,-99.99,,,0.00,weatherlink.com 1.10,2013-02-22 08:24:00,
2013-02-22 02:39:00,40.2,34.0,29.96,North,360,0.0,-999.0,79,-99.99,,,0.00,weatherlink.com 1.10,2013-02-22 08:39:00,
2013-02-22 02:55:00,39.1,34.0,29.96,WNW,293,0.0,-999.0,81,-99.99,,,0.00,weatherlink.com 1.10,2013-02-22 08:55:00,
2013-02-22 03:10:00,38.1,32.0,29.96,WNW,302,0.0,-999.0,80,-99.99,,,0.00,weatherlink.com 1.10,2013-02-22 09:10:00,
2013-02-22 03:24:00,37.5,32.0,29.96,SW,228,0.0,-999.0,80,-99.99,,,0.00,weatherlink.com 1.10,2013-02-22 09:24:00,
2013-02-22 03:39:00,37.4,32.0,29.97,West,266,0.0,-999.0,80,-99.99,,,0.00,weatherlink.com 1.10,2013-02-22 09:39:00,
2013-02-22 03:55:00,37.0,31.0,29.97,WNW,292,0.0,-999.0,80,-99.99,,,0.00,weatherlink.com 1.10,2013-02-22 09:55:00,
2013-02-22 04:09:00,36.7,31.0,29.98,WNW,286,0.0,-999.0,79,-99.99,,,0.00,weatherlink.com 1.10,2013-02-22 10:09:00,
2013-02-22 04:24:00,36.0,29.0,30.00,West,272,0.0,-999.0,76,-99.99,,,0.00,weatherlink.com 1.10,2013-02-22 10:24:00,
2013-02-22 04:40:00,35.4,28.0,30.03,NW,305,0.0,-999.0,74,-99.99,,,0.00,weatherlink.com 1.10,2013-02-22 10:40:00,
2013-02-22 04:55:00,35.0,28.0,30.04,West,270,0.0,-999.0,74,-99.99,,,0.00,weatherlink.com 1.10,2013-02-22 10:55:00,
2013-02-22 05:10:00,34.4,26.0,30.05,ENE,75,0.0,-999.0,71,-99.99,,,0.00,weatherlink.com 1.10,2013-02-22 11:10:00,
2013-02-22 05:25:00,34.1,26.0,30.07,NNE,29,0.0,-999.0,72,-99.99,,,0.00,weatherlink.com 1.10,2013-02-22 11:25:00,
2013-02-22 05:40:00,34.0,27.0,30.08,NNW,327,0.0,-999.0,76,-99.99,,,0.00,weatherlink.com 1.10,2013-02-22 11:40:00,
2013-02-22 05:55:00,33.7,27.0,30.07,WNW,284,0.0,-999.0,77,-99.99,,,0.00,weatherlink.com 1.10,2013-02-22 11:55:00,
2013-02-22 06:10:00,33.4,27.0,30.08,WNW,286,0.0,-999.0,77,-99.99,,,0.00,weatherlink.com 1.10,2013-02-22 12:10:00,
2013-02-22 06:25:00,33.0,27.0,30.07,West,279,0.0,-999.0,77,-99.99,,,0.00,weatherlink.com 1.10,2013-02-22 12:25:00,
2013-02-22 06:40:00,32.7,26.0,30.07,WNW,288,0.0,-999.0,77,-99.99,,,0.00,weatherlink.com 1.10,2013-02-22 12:40:00,
2013-02-22 06:55:00,32.6,26.0,30.08,West,260,0.0,-999.0,75,-99.99,,,0.00,weatherlink.com 1.10,2013-02-22 12:55:00,
2013-02-22 07:10:00,32.4,25.0,30.08,WSW,241,0.0,-999.0,75,-99.99,,,0.00,weatherlink.com 1.10,2013-02-22 13:10:00,
2013-02-22 07:25:00,32.1,25.0,30.11,West,269,0.0,-999.0,74,-99.99,,,0.00,weatherlink.com 1.10,2013-02-22 13:25:00,
2013-02-22 07:40:00,32.1,24.0,30.12,West,272,0.0,-999.0,71,-99.99,,,0.00,weatherlink.com 1.10,2013-02-22 13:40:00,
2013-02-22 07:55:00,32.1,23.0,30.13,ENE,57,0.0,-999.0,69,-99.99,,,0.00,weatherlink.com 1.10,2013-02-22 13:55:00,
2013-02-22 08:10:00,32.3,23.0,30.12,WNW,286,0.0,-999.0,69,-99.99,,,0.00,weatherlink.com 1.10,2013-02-22 14:10:00,
2013-02-22 08:25:00,32.6,23.0,30.14,West,273,0.0,-999.0,67,-99.99,,,0.00,weatherlink.com 1.10,2013-02-22 14:25:00,
2013-02-22 08:41:00,32.8,23.0,30.14,ENE,61,0.0,-999.0,66,-99.99,,,0.00,weatherlink.com 1.10,2013-02-22 14:41:00,
2013-02-22 08:55:00,33.2,23.0,30.14,NE,52,0.0,-999.0,65,-99.99,,,0.00,weatherlink.com 1.10,2013-02-22 14:55:00,
2013-02-22 09:10:00,33.6,23.0,30.14,WNW,299,0.0,-999.0,64,-99.99,,,0.00,weatherlink.com 1.10,2013-02-22 15:10:00,
2013-02-22 09:25:00,33.8,22.0,30.15,ENE,69,0.0,-999.0,62,-99.99,,,0.00,weatherlink.com 1.10,2013-02-22 15:25:00,
2013-02-22 09:41:00,34.4,22.0,30.14,West,267,0.0,-999.0,61,-99.99,,,0.00,weatherlink.com 1.10,2013-02-22 15:41:00,
2013-02-22 09:55:00,34.7,22.0,30.14,West,261,4.0,-999.0,59,-99.99,,,0.00,weatherlink.com 1.10,2013-02-22 15:55:00,
2013-02-22 10:10:00,35.0,21.0,30.14,ENE,65,0.0,-999.0,58,-99.99,,,0.00,weatherlink.com 1.10,2013-02-22 16:10:00,
2013-02-22 10:25:00,35.3,21.0,30.14,WSW,250,3.0,-999.0,57,-99.99,,,0.00,weatherlink.com 1.10,2013-02-22 16:25:00,
2013-02-22 10:40:00,35.3,22.0,30.13,WNW,290,5.0,-999.0,58,-99.99,,,0.00,weatherlink.com 1.10,2013-02-22 16:40:00,
2013-02-22 10:55:00,35.7,22.0,30.12,West,277,1.0,-999.0,58,-99.99,,,0.00,weatherlink.com 1.10,2013-02-22 16:55:00,
2013-02-22 11:10:00,36.2,22.0,30.12,ENE,59,0.0,-999.0,57,-99.99,,,0.00,weatherlink.com 1.10,2013-02-22 17:10:00,
2013-02-22 11:25:00,36.8,22.0,30.12,NE,38,0.0,-999.0,56,-99.99,,,0.00,weatherlink.com 1.10,2013-02-22 17:25:00,
2013-02-22 11:40:00,36.9,22.0,30.11,NNW,337,0.0,-999.0,56,-99.99,,,0.00,weatherlink.com 1.10,2013-02-22 17:40:00,
2013-02-22 11:55:00,37.0,22.0,30.11,NNW,334,0.0,-999.0,56,-99.99,,,0.00,weatherlink.com 1.10,2013-02-22 17:55:00,
2013-02-22 12:10:00,37.3,23.0,30.11,NE,56,1.0,-999.0,56,-99.99,,,0.00,weatherlink.com 1.10,2013-02-22 18:10:00,
2013-02-22 12:25:00,38.1,23.0,30.09,SSW,203,0.0,-999.0,56,-99.99,,,0.00,weatherlink.com 1.10,2013-02-22 18:25:00,
2013-02-22 12:40:00,38.2,23.0,30.09,WSW,255,1.0,-999.0,55,-99.99,,,0.00,weatherlink.com 1.10,2013-02-22 18:40:00,
2013-02-22 12:55:00,39.3,24.0,30.08,West,271,0.0,-999.0,54,-99.99,,,0.00,weatherlink.com 1.10,2013-02-22 18:55:00,
2013-02-22 13:11:00,40.1,24.0,30.07,WSW,258,0.0,-999.0,53,-99.99,,,0.00,weatherlink.com 1.10,2013-02-22 19:11:00,
2013-02-22 13:25:00,41.2,24.0,30.06,WNW,298,0.0,-999.0,51,-99.99,,,0.00,weatherlink.com 1.10,2013-02-22 19:25:00,
2013-02-22 13:40:00,42.3,25.0,30.05,NNW,340,0.0,-999.0,50,-99.99,,,0.00,weatherlink.com 1.10,2013-02-22 19:40:00,
2013-02-22 13:55:00,43.1,24.0,30.05,West,271,0.0,-999.0,48,-99.99,,,0.00,weatherlink.com 1.10,2013-02-22 19:55:00,
2013-02-22 14:11:00,44.0,25.0,30.03,WNW,302,0.0,-999.0,48,-99.99,,,0.00,weatherlink.com 1.10,2013-02-22 20:11:00,
2013-02-22 14:26:00,45.0,26.0,30.03,WSW,249,0.0,-999.0,47,-99.99,,,0.00,weatherlink.com 1.10,2013-02-22 20:26:00,
2013-02-22 14:41:00,45.4,27.0,30.03,NE,53,2.0,-999.0,48,-99.99,,,0.00,weatherlink.com 1.10,2013-02-22 20:41:00,
2013-02-22 14:56:00,45.8,26.0,30.02,West,261,0.0,-999.0,47,-99.99,,,0.00,weatherlink.com 1.10,2013-02-22 20:56:00,
2013-02-22 15:11:00,46.1,26.0,30.02,East,97,0.0,-999.0,46,-99.99,,,0.00,weatherlink.com 1.10,2013-02-22 21:11:00,
2013-02-22 15:26:00,46.1,27.0,30.01,ESE,107,3.0,-999.0,47,-99.99,,,0.00,weatherlink.com 1.10,2013-02-22 21:26:00,
2013-02-22 15:56:00,47.0,28.0,30.01,ENE,70,0.0,-999.0,47,-99.99,,,0.00,weatherlink.com 1.10,2013-02-22 21:56:00,
2013-02-22 16:11:00,47.8,27.0,30.01,NW,316,1.0,-999.0,45,-99.99,,,0.00,weatherlink.com 1.10,2013-02-22 22:11:00,
2013-02-22 16:26:00,48.0,28.0,30.01,NE,43,4.0,-999.0,47,-99.99,,,0.00,weatherlink.com 1.10,2013-02-22 22:26:00,
2013-02-22 16:41:00,48.4,28.0,30.01,West,272,0.0,-999.0,46,-99.99,,,0.00,weatherlink.com 1.10,2013-02-22 22:41:00,
2013-02-22 16:56:00,48.1,28.0,30.01,SW,232,0.0,-999.0,46,-99.99,,,0.00,weatherlink.com 1.10,2013-02-22 22:56:00,
2013-02-22 17:11:00,47.7,28.0,30.01,SSW,202,0.0,-999.0,47,-99.99,,,0.00,weatherlink.com 1.10,2013-02-22 23:11:00,
2013-02-22 17:26:00,47.2,28.0,30.02,ESE,113,0.0,-999.0,47,-99.99,,,0.00,weatherlink.com 1.10,2013-02-22 23:26:00,
2013-02-22 17:41:00,46.8,27.0,30.02,ENE,68,0.0,-999.0,47,-99.99,,,0.00,weatherlink.com 1.10,2013-02-22 23:41:00,
2013-02-22 17:56:00,46.4,27.0,30.02,NE,38,0.0,-999.0,48,-99.99,,,0.00,weatherlink.com 1.10,2013-02-22 23:56:00,
2013-02-22 18:11:00,46.2,28.0,30.03,West,263,0.0,-999.0,49,-99.99,,,0.00,weatherlink.com 1.10,2013-02-23 00:11:00,
2013-02-22 18:26:00,45.9,28.0,30.05,ESE,109,0.0,-999.0,50,-99.99,,,0.00,weatherlink.com 1.10,2013-02-23 00:26:00,
2013-02-22 18:41:00,45.4,28.0,30.05,ESE,102,0.0,-999.0,51,-99.99,,,0.00,weatherlink.com 1.10,2013-02-23 00:41:00,
2013-02-22 18:56:00,45.0,28.0,30.06,East,98,0.0,-999.0,51,-99.99,,,0.00,weatherlink.com 1.10,2013-02-23 00:56:00,
2013-02-22 19:11:00,44.6,28.0,30.07,East,98,0.0,-999.0,52,-99.99,,,0.00,weatherlink.com 1.10,2013-02-23 01:11:00,
2013-02-22 19:26:00,44.4,28.0,30.08,East,98,0.0,-999.0,53,-99.99,,,0.00,weatherlink.com 1.10,2013-02-23 01:26:00,
2013-02-22 19:41:00,44.3,28.0,30.09,East,94,0.0,-999.0,53,-99.99,,,0.00,weatherlink.com 1.10,2013-02-23 01:41:00,
2013-02-22 19:56:00,44.0,28.0,30.10,East,94,0.0,-999.0,54,-99.99,,,0.00,weatherlink.com 1.10,2013-02-23 01:56:00,
2013-02-22 20:11:00,43.9,28.0,30.11,East,87,0.0,-999.0,53,-99.99,,,0.00,weatherlink.com 1.10,2013-02-23 02:11:00,
2013-02-22 20:26:00,43.8,27.0,30.10,ESE,110,1.0,-999.0,53,-99.99,,,0.00,weatherlink.com 1.10,2013-02-23 02:26:00,
2013-02-22 20:41:00,43.2,28.0,30.10,East,95,0.0,-999.0,55,-99.99,,,0.00,weatherlink.com 1.10,2013-02-23 02:41:00,
2013-02-22 20:56:00,42.5,28.0,30.09,East,95,0.0,-999.0,56,-99.99,,,0.00,weatherlink.com 1.10,2013-02-23 02:56:00,
2013-02-22 21:11:00,42.5,27.0,30.09,East,82,3.0,-999.0,55,-99.99,,,0.00,weatherlink.com 1.10,2013-02-23 03:11:00,
2013-02-22 21:26:00,42.7,26.0,30.09,ENE,76,0.0,-999.0,53,-99.99,,,0.00,weatherlink.com 1.10,2013-02-23 03:26:00,
2013-02-22 21:41:00,42.2,26.0,30.09,ENE,67,1.0,-999.0,54,-99.99,,,0.00,weatherlink.com 1.10,2013-02-23 03:41:00,
2013-02-22 21:56:00,41.7,26.0,30.10,ENE,69,0.0,-999.0,55,-99.99,,,0.00,weatherlink.com 1.10,2013-02-23 03:56:00,
2013-02-22 22:11:00,41.3,26.0,30.10,ENE,74,0.0,-999.0,56,-99.99,,,0.00,weatherlink.com 1.10,2013-02-23 04:11:00,
2013-02-22 22:26:00,40.9,27.0,30.10,ENE,73,0.0,-999.0,57,-99.99,,,0.00,weatherlink.com 1.10,2013-02-23 04:26:00,
2013-02-22 22:41:00,40.7,26.0,30.11,ENE,73,0.0,-999.0,56,-99.99,,,0.00,weatherlink.com 1.10,2013-02-23 04:41:00,
2013-02-22 22:56:00,40.6,26.0,30.10,NE,49,0.0,-999.0,57,-99.99,,,0.00,weatherlink.com 1.10,2013-02-23 04:56:00,
2013-02-22 23:11:00,40.1,26.0,30.10,NE,49,0.0,-999.0,57,-99.99,,,0.00,weatherlink.com 1.10,2013-02-23 05:11:00,
2013-02-22 23:26:00,40.0,26.0,30.10,NE,40,0.0,-999.0,58,-99.99,,,0.00,weatherlink.com 1.10,2013-02-23 05:26:00,
2013-02-22 23:41:00,39.6,26.0,30.10,NE,40,0.0,-999.0,58,-99.99,,,0.00,weatherlink.com 1.10,2013-02-23 05:41:00,
2013-02-22 23:56:00,39.7,26.0,30.09,NE,42,0.0,-999.0,58,-99.99,,,0.00,weatherlink.com 1.10,2013-02-23 05:56:00,